#timestamp,LO_Frequency,Hit,StdDev 
1598313615.9,286046998.1,N
1598313635.7,286047001.0,N
1598313655.6,286047000.6,N
1598313675.4,286047002.5,N
1598313695.3,286047000.3,N
1598313715.1,286047000.9,N
1598313716.0,286047000.9,N
1598313735.8,286047002.7,N
1598313755.7,286047000.0,N
1598313775.5,286047000.1,N
1598313795.3,286047000.2,N
1598313815.2,286047002.6,N
1598313835.0,286047002.3,N
1598313835.9,286047002.3,N
1598313855.8,286047002.7,N
1598313875.6,286047002.8,N
1598313895.4,286046999.8,N
1598313915.3,286047002.5,N
1598313935.1,286047002.8,N
1598313955.8,286047002.0,N
1598313975.7,286047002.5,N
1598313995.5,286047001.3,N
1598314015.4,286047001.6,N
1598314035.2,286047002.0,N
1598314055.0,286047002.2,N
1598314055.9,286047002.2,N
1598314075.8,286047002.0,N
1598314095.6,286047002.6,N
1598314115.4,286047002.6,N
1598314135.3,286047002.6,N
1598314155.1,286047000.5,N
1598314175.9,286047002.1,N
1598314195.7,286047002.4,N
1598314215.5,286047002.4,N
1598314235.4,286047002.3,N
1598314255.2,286047000.1,N
1598314275.0,286047000.7,N
1598314275.9,286047000.7,N
1598314295.8,286047002.8,N
1598314315.6,286047000.6,N
1598314335.5,286046999.9,N
1598314355.3,286047002.7,N
1598314375.1,286047000.0,N
1598314395.9,286047001.1,N
1598314415.7,286046998.5,N
1598314435.5,286047001.0,N
1598314455.4,286047001.2,N
1598314475.2,286047000.8,N
1598314495.1,286047000.8,N
1598314496.0,286047000.8,N
1598314515.8,286047000.4,N
1598314535.6,286047000.7,N
1598314555.5,286047000.0,N
1598314575.3,286047000.2,N
1598314595.1,286047000.9,N
1598314615.9,286046999.0,N
1598314635.7,286047000.7,N
1598314655.6,286046999.3,N
1598314675.4,286046999.0,N
1598314695.2,286046996.7,N
1598314715.1,286046996.9,N
1598314716.0,286046996.9,N
1598314735.8,286046998.4,N
1598314755.7,286046998.1,N
1598314775.5,286046998.9,N
1598314795.3,286047001.2,N
1598314815.2,286046999.4,N
1598314835.9,286046998.9,N
1598314855.7,286046998.5,N
1598314875.6,286047000.9,N
1598314895.4,286046998.1,N
1598314915.3,286047000.7,N
1598314935.1,286047000.8,N
1598314936.0,286047000.8,N
1598314955.8,286046998.3,N
1598314975.7,286046999.0,N
1598314995.5,286046998.6,N
1598315015.4,286046998.4,N
1598315035.2,286046999.3,N
1598315055.0,286046998.3,N
1598315055.9,286046998.3,N
1598315075.8,286046999.5,N
1598315095.6,286046996.8,N
1598315115.5,286046997.2,N
1598315135.3,286046996.9,N
1598315155.1,286046999.1,N
1598315175.9,286046998.7,N
1598315195.7,286046999.0,N
1598315215.5,286046998.4,N
1598315235.4,286046997.3,N
1598315255.2,286046998.0,N
1598315275.1,286046997.9,N
1598315276.0,286046997.9,N
1598315295.8,286046997.1,N
1598315315.6,286046997.0,N
1598315335.5,286046997.2,N
1598315355.3,286046999.3,N
1598315375.1,286046996.9,N
1598315395.9,286046997.3,N
1598315415.7,286046996.5,N
1598315435.6,286046996.7,N
1598315455.4,286046999.4,N
1598315475.2,286046997.0,N
1598315495.1,286046997.1,N
1598315496.0,286046997.1,Y
1598315515.8,286046998.5,P
1598315535.7,286046998.3,P
1598315555.5,286046999.7,N
1598315575.3,286047002.4,Y
1598315595.2,286047001.7,P
1598315615.0,286047003.9,N
1598315615.9,286047003.9,N
1598315635.8,286047003.4,N
1598315655.6,286047003.8,N
1598315675.4,286047004.3,N
1598315695.3,286047004.2,N
1598315715.1,286047003.9,N
1598315735.8,286047003.1,N
1598315755.7,286047003.3,N
1598315775.5,286047005.5,Y
1598315795.4,286047001.1,P
1598315815.2,286046999.7,N
1598315835.0,286047000.5,N
1598315835.9,286047000.5,N
1598315855.8,286047000.8,N
1598315875.6,286047000.1,N
1598315895.5,286046998.5,N
1598315915.3,286047001.1,N
1598315935.1,286047000.1,N
1598315955.9,286047001.0,N
1598315975.7,286047002.8,N
1598315995.6,286047000.5,N
1598316015.4,286047001.0,N
1598316035.2,286046998.1,N
1598316055.1,286047001.0,N
1598316056.0,286047001.0,N
1598316075.8,286047000.0,N
1598316095.7,286047002.0,N
1598316115.5,286047001.6,N
1598316135.4,286047001.6,N
1598316155.2,286047004.0,Y
1598316175.0,286047001.5,P
1598316175.9,286047001.5,P
1598316195.8,286047002.3,P
1598316215.6,286046999.8,N
1598316235.5,286046999.7,N
1598316255.3,286047002.8,N
1598316275.2,286047002.3,N
1598316295.9,286047002.6,N
1598316315.7,286047000.1,N
1598316335.6,286047002.7,N
1598316355.4,286047001.4,N
1598316375.2,286047002.0,N
1598316395.1,286047001.4,N
1598316396.0,286047001.4,N
1598316415.8,286047001.5,N
1598316435.7,286047002.6,N
1598316455.5,286047003.9,Y
1598316475.3,286047000.5,P
1598316495.2,286047002.5,P
1598316515.0,286047000.1,N
1598316515.9,286047000.1,N
1598316535.8,286047000.6,N
1598316555.6,286047000.2,N
1598316575.4,286047002.0,N
1598316595.3,286047002.3,N
1598316615.1,286046999.8,N
1598316635.8,286047000.4,N
1598316655.7,286047000.7,N
1598316675.5,286047001.1,N
1598316695.4,286047000.7,N
1598316715.2,286047000.0,N
1598316735.0,286046998.2,N
1598316735.9,286046998.2,N
1598316755.8,286047000.6,N
1598316775.6,286047000.5,N
1598316795.4,286047000.5,N
1598316815.3,286047000.2,N
1598316835.1,286047001.9,N
1598316855.9,286047002.3,N
1598316875.7,286047000.9,N
1598316895.5,286047000.9,N
1598316915.4,286047001.1,N
1598316935.2,286047000.3,N
1598316955.0,286047000.9,N
1598316955.9,286047000.9,N
1598316975.8,286047001.6,N
1598316995.6,286047000.9,N
1598317015.5,286047000.9,N
1598317035.3,286046999.9,N
1598317055.1,286047000.1,N
1598317075.9,286047002.2,N
1598317095.7,286047002.4,N
1598317115.5,286047002.5,N
1598317135.4,286047002.6,N
1598317155.2,286047001.7,N
1598317175.1,286047004.1,Y
1598317176.0,286047004.1,P
1598317195.8,286047002.0,N
